START_TIME,STEP,MOV.,M15,t_acc.,M20,t_acc.
1989-08-27T12:00:44.450 ,5,0,0.,24.0,0.,24.0
1989-08-27T12:01:08.450 ,6,1,0.,24.0,0.,24.0
1989-08-27T12:01:32.450 ,6,0,0.,24.0,0.,24.0
1989-08-27T12:01:56.450 ,7,1,0.,24.0,0.,24.0
1989-08-27T12:02:20.450 ,7,0,0.,24.0,0.,24.0
1989-08-27T12:02:44.450 ,7,1,0.,24.0,0.,24.0
1989-08-27T12:03:08.450 ,7,0,0.,24.0,0.,24.0
1989-08-27T12:03:32.450 ,6,1,0.,24.0,0.,24.0
1989-08-27T12:03:56.450 ,6,0,0.,24.0,0.,24.0
1989-08-27T12:04:20.450 ,5,1,0.,24.0,0.,24.0
1989-08-27T12:04:44.450 ,5,0,0.,24.0,0.,24.0
1989-08-27T12:05:08.450 ,4,1,0.,24.0,0.,24.0
1989-08-27T12:05:32.450 ,4,0,0.,24.0,0.,24.0
1989-08-27T12:05:56.450 ,3,1,0.,24.0,0.,24.0
1989-08-27T12:06:20.450 ,3,0,0.,24.0,0.,24.0
1989-08-27T12:06:44.450 ,2,1,0.,24.0,0.,24.0
1989-08-27T12:07:08.450 ,2,0,0.,24.0,0.,24.0
1989-08-27T12:07:32.450 ,1,1,0.,24.0,0.,24.0
1989-08-27T12:07:56.450 ,1,0,0.,24.0,0.,24.0
1989-08-27T12:08:20.450 ,0,1,0.,24.0,0.,24.0
1989-08-27T12:08:44.450 ,0,0,0.,24.0,0.,24.0
1989-08-27T12:09:08.450 ,0,1,0.,24.0,0.,24.0
1989-08-27T12:09:32.450 ,0,0,0.,24.0,0.,24.0
1989-08-27T12:09:56.450 ,1,1,0.,24.0,0.,24.0
1989-08-27T12:10:20.450 ,1,0,0.,24.0,0.,24.0
1989-08-27T12:10:44.450 ,2,1,0.,24.0,0.,24.0
1989-08-27T12:11:08.450 ,2,0,0.,24.0,0.,24.0
1989-08-27T12:11:32.450 ,3,1,0.,24.0,0.,24.0
1989-08-27T12:11:56.450 ,3,0,0.,24.0,0.,24.0
1989-08-27T12:12:20.450 ,4,1,0.,24.0,0.,24.0
1989-08-27T12:12:44.450 ,4,0,0.,24.0,0.,24.0
1989-08-27T12:13:08.450 ,5,1,0.,24.0,0.,24.0
1989-08-27T12:13:32.450 ,5,0,0.,24.0,0.,24.0
1989-08-27T12:13:56.450 ,6,1,0.,24.0,0.,24.0
1989-08-27T12:14:20.450 ,6,0,0.,24.0,0.,24.0
1989-08-27T12:14:44.450 ,7,1,0.,24.0,0.,24.0
1989-08-27T12:15:08.450 ,7,0,0.,24.0,0.,24.0
1989-08-27T12:15:32.450 ,7,1,0.,24.0,0.,24.0
1989-08-27T12:15:56.450 ,7,0,0.,24.0,0.,24.0
1989-08-27T12:16:20.450 ,6,1,0.,24.0,0.,24.0
1989-08-27T12:16:44.450 ,6,0,0.,24.0,0.,24.0
1989-08-27T12:17:08.450 ,5,1,0.,24.0,0.,24.0
1989-08-27T12:17:32.450 ,5,0,0.,24.0,0.,24.0
1989-08-27T12:17:56.450 ,4,1,0.,24.0,0.,24.0
1989-08-27T12:18:20.450 ,4,0,0.,24.0,0.,24.0
1989-08-27T12:18:44.450 ,3,1,0.,24.0,0.,24.0
1989-08-27T12:19:08.450 ,3,0,0.,24.0,0.,24.0
1989-08-27T12:19:32.450 ,2,1,0.,24.0,0.,24.0
1989-08-27T12:19:56.450 ,2,0,0.,24.0,0.,24.0
1989-08-27T12:20:20.450 ,1,1,0.,24.0,0.,24.0
1989-08-27T12:20:44.450 ,1,0,0.,24.0,0.,24.0
1989-08-27T12:21:08.450 ,0,1,0.,24.0,0.,24.0
1989-08-27T12:21:32.450 ,0,0,0.,24.0,0.,24.0
1989-08-27T12:21:56.450 ,0,1,0.,24.0,0.,24.0
1989-08-27T12:22:20.450 ,0,0,0.,24.0,0.,24.0
1989-08-27T12:22:44.450 ,1,1,0.,24.0,0.,24.0
1989-08-27T12:23:08.450 ,1,0,0.,24.0,0.,24.0
1989-08-27T12:23:32.450 ,2,1,0.,24.0,0.,24.0
1989-08-27T12:23:56.450 ,2,0,0.,24.0,0.,24.0
1989-08-27T12:24:20.450 ,3,1,0.,24.0,0.,24.0
1989-08-27T12:24:44.450 ,3,0,0.,24.0,0.,24.0
1989-08-27T12:25:08.450 ,4,1,0.,24.0,0.,24.0
1989-08-27T12:25:32.450 ,4,0,0.,24.0,0.,24.0
1989-08-27T12:25:56.450 ,5,1,0.,24.0,0.,24.0
1989-08-27T12:26:20.450 ,5,0,0.,24.0,0.,24.0
1989-08-27T12:26:44.450 ,6,1,0.,24.0,0.,24.0
1989-08-27T12:27:08.450 ,6,0,0.,24.0,0.,24.0
1989-08-27T12:27:32.450 ,7,1,0.,24.0,0.,24.0
1989-08-27T12:27:56.450 ,7,0,0.,24.0,0.,24.0
1989-08-27T12:28:20.450 ,7,1,0.,24.0,0.,24.0
1989-08-27T12:28:44.450 ,7,0,0.,24.0,0.,24.0
1989-08-27T12:29:08.450 ,6,1,0.,24.0,0.,24.0
1989-08-27T12:29:32.450 ,6,0,0.,24.0,0.,24.0
1989-08-27T12:29:56.450 ,5,1,0.,24.0,0.,24.0
1989-08-27T12:30:20.450 ,5,0,0.,24.0,0.,24.0
1989-08-27T12:30:44.450 ,4,1,0.,24.0,0.,24.0
1989-08-27T12:31:08.450 ,4,0,0.,24.0,0.,24.0
1989-08-27T12:31:32.450 ,3,1,0.,24.0,0.,24.0
1989-08-27T12:31:56.450 ,3,0,0.,24.0,0.,24.0
1989-08-27T12:32:20.450 ,0,0,,0,,0
1989-08-27T12:32:44.450 ,0,0,,0,,0
1989-08-27T12:33:18.050 ,0,0,0.,24.0,0.,24.0
1989-08-27T12:33:32.450 ,0,0,0.,24.0,0.,24.0
1989-08-27T12:33:56.450 ,0,1,0.,24.0,0.,24.0
1989-08-27T12:34:20.450 ,0,0,,0,,0
1989-08-27T12:34:31.250 ,0,0,0.,24.0,0.,24.0
1989-08-27T12:34:44.450 ,0,1,0.,24.0,0.,24.0
1989-08-27T12:35:08.450 ,0,0,0.,24.0,0.,24.0
1989-08-27T12:35:32.450 ,1,1,0.,24.0,0.,24.0
1989-08-27T12:35:56.450 ,1,0,0.,24.0,0.,24.0
1989-08-27T12:36:20.450 ,2,1,0.,24.0,0.,24.0
1989-08-27T12:36:44.450 ,2,0,0.,24.0,0.,24.0
1989-08-27T12:37:08.450 ,3,1,0.,24.0,0.,24.0
1989-08-27T12:37:32.450 ,3,0,0.,24.0,0.,24.0
1989-08-27T12:37:56.450 ,4,1,0.,24.0,0.,24.0
1989-08-27T12:38:20.450 ,4,0,0.,24.0,0.,24.0
1989-08-27T12:38:44.450 ,5,1,0.,24.0,0.,24.0
1989-08-27T12:39:08.450 ,5,0,0.,24.0,0.,24.0
1989-08-27T12:39:32.450 ,6,1,0.,24.0,0.,24.0
1989-08-27T12:39:56.450 ,6,0,0.,24.0,0.,24.0
1989-08-27T12:40:20.450 ,7,1,0.,24.0,0.,24.0
1989-08-27T12:40:44.450 ,7,0,0.,24.0,0.,24.0
1989-08-27T12:41:08.450 ,7,1,0.,24.0,0.,24.0
1989-08-27T12:41:32.450 ,7,0,0.,24.0,0.,24.0
1989-08-27T12:41:56.450 ,6,1,0.,24.0,0.,24.0
1989-08-27T12:42:20.450 ,6,0,0.,24.0,0.,24.0
1989-08-27T12:42:44.450 ,5,1,0.,24.0,0.,24.0
1989-08-27T12:43:08.450 ,5,0,0.,24.0,0.,24.0
1989-08-27T12:43:32.450 ,4,1,0.,24.0,0.,24.0
1989-08-27T12:43:56.450 ,4,0,0.,24.0,0.,24.0
1989-08-27T12:44:20.450 ,3,1,0.,24.0,0.,24.0
1989-08-27T12:44:44.450 ,3,0,0.,24.0,0.,24.0
1989-08-27T12:45:08.450 ,2,1,0.,24.0,0.,24.0
1989-08-27T12:45:32.450 ,2,0,0.,24.0,0.,24.0
1989-08-27T12:45:56.450 ,1,1,0.,24.0,0.,24.0
1989-08-27T12:46:20.450 ,1,0,0.,24.0,0.,24.0
1989-08-27T12:46:44.450 ,0,1,0.,24.0,0.,24.0
1989-08-27T12:47:08.450 ,0,0,0.,24.0,0.,24.0
1989-08-27T12:47:32.450 ,0,1,0.,24.0,0.,24.0
1989-08-27T12:47:56.450 ,0,0,0.,24.0,0.,24.0
1989-08-27T12:48:20.450 ,1,1,0.,24.0,0.,24.0
1989-08-27T12:48:44.450 ,1,0,0.,24.0,0.,24.0
1989-08-27T12:49:08.450 ,2,1,0.,24.0,0.,24.0
1989-08-27T12:49:32.450 ,2,0,0.,24.0,0.,24.0
1989-08-27T12:49:56.450 ,3,1,0.,24.0,0.,24.0
1989-08-27T12:50:20.450 ,3,0,0.,24.0,0.,24.0
1989-08-27T12:50:44.450 ,4,1,0.,24.0,0.,24.0
1989-08-27T12:51:08.450 ,4,0,0.,24.0,0.,24.0
1989-08-27T12:51:32.450 ,5,1,0.,24.0,0.,24.0
1989-08-27T12:51:56.450 ,5,0,0.,24.0,0.,24.0
1989-08-27T12:52:20.450 ,6,1,0.,24.0,0.,24.0
1989-08-27T12:52:44.450 ,6,0,0.,24.0,0.,24.0
1989-08-27T12:53:08.450 ,7,1,0.,24.0,0.,24.0
1989-08-27T12:53:32.450 ,7,0,0.,24.0,0.,24.0
1989-08-27T12:53:56.450 ,7,1,0.,24.0,0.,24.0
1989-08-27T12:54:20.450 ,7,0,0.,24.0,0.,24.0
1989-08-27T12:54:44.450 ,6,1,0.,24.0,0.,24.0
1989-08-27T12:55:08.450 ,6,0,0.,24.0,0.,24.0
1989-08-27T12:55:32.450 ,5,1,0.,24.0,0.,24.0
1989-08-27T12:55:56.450 ,5,0,0.,24.0,0.,24.0
1989-08-27T12:56:20.450 ,4,1,0.,24.0,0.,24.0
1989-08-27T12:56:44.450 ,4,0,0.,24.0,0.,24.0
1989-08-27T12:57:08.450 ,3,1,0.,24.0,0.,24.0
1989-08-27T12:57:32.450 ,3,0,0.,24.0,0.,24.0
1989-08-27T12:57:56.450 ,2,1,0.,24.0,0.,24.0
1989-08-27T12:58:20.450 ,2,0,0.,24.0,0.,24.0
1989-08-27T12:58:44.450 ,1,1,0.,24.0,0.,24.0
1989-08-27T12:59:08.450 ,1,0,0.,24.0,0.,24.0
1989-08-27T12:59:32.450 ,0,1,0.,24.0,0.,24.0
1989-08-27T12:59:56.450 ,0,0,0.,24.0,0.,24.0
1989-08-27T13:00:20.450 ,0,1,0.,24.0,0.,24.0
1989-08-27T13:00:44.450 ,0,0,0.,24.0,0.,24.0
1989-08-27T13:01:08.450 ,1,1,0.,24.0,0.,24.0
1989-08-27T13:01:32.450 ,1,0,0.,24.0,0.,24.0
1989-08-27T13:01:56.450 ,2,1,0.,24.0,0.,24.0
1989-08-27T13:02:20.450 ,2,0,0.,24.0,0.,24.0
1989-08-27T13:02:44.450 ,3,1,0.,24.0,0.,24.0
1989-08-27T13:03:08.450 ,3,0,0.,24.0,0.,24.0
1989-08-27T13:03:32.450 ,4,1,0.,24.0,0.,24.0
1989-08-27T13:03:56.450 ,4,0,0.,24.0,0.,24.0
1989-08-27T13:04:20.450 ,5,1,0.,24.0,0.,24.0
1989-08-27T13:04:44.450 ,5,0,0.,24.0,0.,24.0
1989-08-27T13:05:08.450 ,6,1,0.,24.0,0.,24.0
1989-08-27T13:05:32.450 ,6,0,0.,24.0,0.,24.0
1989-08-27T13:05:56.450 ,7,1,0.,24.0,0.,24.0
1989-08-27T13:06:20.450 ,7,0,0.,24.0,0.,24.0
1989-08-27T13:06:44.450 ,7,1,0.,24.0,0.,24.0
1989-08-27T13:07:08.450 ,7,0,0.,24.0,0.,24.0
1989-08-27T13:07:32.450 ,6,1,0.,24.0,0.,24.0
1989-08-27T13:07:56.450 ,6,0,0.,24.0,0.,24.0
1989-08-27T13:08:20.450 ,5,1,0.,24.0,0.,24.0
1989-08-27T13:08:44.450 ,5,0,0.,24.0,0.,24.0
1989-08-27T13:09:08.450 ,4,1,0.,24.0,0.,24.0
1989-08-27T13:09:32.450 ,4,0,0.,24.0,0.,24.0
1989-08-27T13:09:56.450 ,3,1,0.,24.0,0.,24.0
1989-08-27T13:10:20.450 ,3,0,0.,24.0,0.,24.0
1989-08-27T13:10:44.450 ,2,1,0.,24.0,0.,24.0
1989-08-27T13:11:08.450 ,2,0,0.,24.0,0.,24.0
1989-08-27T13:11:32.450 ,1,1,0.,24.0,0.,24.0
1989-08-27T13:11:56.450 ,1,0,0.,24.0,0.,24.0
1989-08-27T13:12:20.450 ,0,1,0.,24.0,0.,24.0
1989-08-27T13:12:44.450 ,0,0,0.,24.0,0.,24.0
1989-08-27T13:14:00.650 ,0,0,0.,24.0,0.,24.0
1989-08-27T13:14:20.450 ,0,0,0.,24.0,0.,24.0
1989-08-27T13:14:44.450 ,2,1,0.,24.0,0.,24.0
1989-08-27T13:15:08.450 ,2,0,0.,24.0,0.,24.0
1989-08-27T13:15:32.450 ,3,1,0.,24.0,0.,24.0
1989-08-27T13:15:56.450 ,3,0,0.,24.0,0.,24.0
1989-08-27T13:16:20.450 ,4,1,0.,24.0,0.,24.0
1989-08-27T13:16:44.450 ,4,0,0.,24.0,0.,24.0
1989-08-27T13:17:08.440 ,5,1,0.,24.0,0.,24.0
1989-08-27T13:17:32.450 ,5,0,0.,24.0,0.,24.0
1989-08-27T13:17:56.450 ,6,1,0.,24.0,0.,24.0
1989-08-27T13:18:20.450 ,6,0,0.,24.0,0.,24.0
1989-08-27T13:18:44.440 ,7,1,0.,24.0,0.,24.0
1989-08-27T13:19:08.440 ,7,0,0.,24.0,0.,24.0
1989-08-27T13:19:32.440 ,7,1,0.,24.0,0.,24.0
1989-08-27T13:19:56.440 ,7,0,0.,24.0,0.,24.0
1989-08-27T13:20:20.440 ,6,1,0.,24.0,0.,24.0
1989-08-27T13:20:44.440 ,6,0,0.,24.0,0.,24.0
1989-08-27T13:21:08.440 ,5,1,0.,24.0,0.,24.0
1989-08-27T13:21:32.440 ,5,0,0.,24.0,0.,24.0
1989-08-27T13:21:56.440 ,4,1,0.,24.0,0.,24.0
1989-08-27T13:22:20.440 ,4,0,0.,24.0,0.,24.0
1989-08-27T13:22:44.440 ,3,1,0.,24.0,0.,24.0
1989-08-27T13:23:08.440 ,3,0,0.,24.0,0.,24.0
1989-08-27T13:23:32.440 ,2,1,0.,24.0,0.,24.0
1989-08-27T13:23:56.440 ,2,0,0.,24.0,0.,24.0
1989-08-27T13:24:20.440 ,1,1,0.,24.0,0.,24.0
1989-08-27T13:24:44.440 ,1,0,0.,24.0,0.,24.0
1989-08-27T13:25:08.440 ,0,1,0.,24.0,0.,24.0
1989-08-27T13:25:32.440 ,0,0,0.,24.0,0.,24.0
1989-08-27T13:25:56.440 ,0,1,0.,24.0,0.,24.0
1989-08-27T13:26:20.440 ,0,0,0.,24.0,0.,24.0
1989-08-27T13:26:44.440 ,1,1,0.,24.0,0.,24.0
1989-08-27T13:27:08.440 ,1,0,0.,24.0,0.,24.0
1989-08-27T13:27:32.440 ,2,1,0.,24.0,0.,24.0
1989-08-27T13:27:56.440 ,2,0,0.,24.0,0.,24.0
1989-08-27T13:28:20.440 ,3,1,0.,24.0,0.,24.0
1989-08-27T13:28:44.440 ,3,0,0.,24.0,0.,24.0
1989-08-27T13:29:08.440 ,4,1,0.,24.0,0.,24.0
1989-08-27T13:29:32.440 ,4,0,0.,24.0,0.,24.0
1989-08-27T13:29:56.440 ,5,1,0.,24.0,0.,24.0
1989-08-27T13:30:20.440 ,5,0,0.,24.0,0.,24.0
1989-08-27T13:30:44.440 ,6,1,0.,24.0,0.,24.0
1989-08-27T13:31:08.440 ,6,0,0.,24.0,0.,24.0
1989-08-27T13:31:32.440 ,7,1,0.,24.0,0.,24.0
1989-08-27T13:31:56.440 ,7,0,0.,24.0,0.,24.0
1989-08-27T13:32:20.440 ,7,1,0.,24.0,0.,24.0
1989-08-27T13:32:44.440 ,7,0,0.,24.0,0.,24.0
1989-08-27T13:33:08.440 ,6,1,0.,24.0,0.,24.0
1989-08-27T13:33:32.440 ,6,0,0.,24.0,0.,24.0
1989-08-27T13:33:56.440 ,5,1,0.,24.0,0.,24.0
1989-08-27T13:34:20.440 ,5,0,0.,24.0,0.,24.0
1989-08-27T13:34:44.440 ,4,1,0.,24.0,0.,24.0
1989-08-27T13:35:08.440 ,4,0,0.,24.0,0.,24.0
1989-08-27T13:35:32.440 ,3,1,0.,24.0,0.,24.0
1989-08-27T13:35:56.440 ,3,0,0.,24.0,0.,24.0
1989-08-27T13:36:20.440 ,2,1,0.,24.0,0.,24.0
1989-08-27T13:36:44.440 ,2,0,0.,24.0,0.,24.0
1989-08-27T13:37:08.440 ,1,1,0.,24.0,0.,24.0
1989-08-27T13:37:32.440 ,1,0,0.,24.0,0.,24.0
1989-08-27T13:37:56.440 ,0,1,0.,24.0,0.,24.0
1989-08-27T13:38:20.440 ,0,0,0.,24.0,0.,24.0
1989-08-27T13:38:44.440 ,0,1,0.,24.0,0.,24.0
1989-08-27T13:39:08.440 ,0,0,0.,24.0,0.,24.0
1989-08-27T13:39:32.440 ,1,1,0.,24.0,0.,24.0
1989-08-27T13:39:56.440 ,1,0,0.,24.0,0.,24.0
1989-08-27T13:40:20.440 ,2,1,0.,24.0,0.,24.0
1989-08-27T13:40:44.440 ,2,0,0.,24.0,0.,24.0
1989-08-27T13:41:08.440 ,3,1,0.,24.0,0.,24.0
1989-08-27T13:41:32.440 ,0,0,0.,24.0,0.,24.0
1989-08-27T13:41:56.440 ,4,1,0.,24.0,0.,24.0
1989-08-27T13:42:20.440 ,4,0,0.,24.0,0.,24.0
1989-08-27T13:42:44.440 ,5,1,0.,24.0,0.,24.0
1989-08-27T13:43:08.440 ,5,0,0.,24.0,0.,24.0
1989-08-27T13:43:32.440 ,6,1,0.,24.0,0.,24.0
1989-08-27T13:43:56.440 ,6,0,0.,24.0,0.,24.0
1989-08-27T13:44:20.440 ,7,1,0.,24.0,0.,24.0
1989-08-27T13:44:44.440 ,7,0,0.,24.0,0.,24.0
1989-08-27T13:45:08.440 ,7,1,0.,24.0,0.,24.0
1989-08-27T13:45:32.440 ,7,0,0.,24.0,0.,24.0
1989-08-27T13:45:56.440 ,6,1,0.,24.0,0.,24.0
1989-08-27T13:46:20.440 ,6,0,0.,24.0,0.,24.0
1989-08-27T13:46:44.440 ,5,1,0.,24.0,0.,24.0
1989-08-27T13:47:08.440 ,5,0,0.,24.0,0.,24.0
1989-08-27T13:47:32.440 ,4,1,0.,24.0,0.,24.0
1989-08-27T13:47:56.440 ,4,0,0.,24.0,0.,24.0
1989-08-27T13:48:20.440 ,3,1,0.,24.0,0.,24.0
1989-08-27T13:48:44.440 ,3,0,0.,24.0,0.,24.0
1989-08-27T13:49:08.440 ,2,1,0.,24.0,0.,24.0
1989-08-27T13:49:32.440 ,2,0,0.,24.0,0.,24.0
1989-08-27T13:49:56.440 ,1,1,0.,24.0,0.,24.0
1989-08-27T13:50:20.440 ,1,0,0.,24.0,0.,24.0
1989-08-27T13:50:44.440 ,0,1,0.,24.0,0.,24.0
1989-08-27T13:51:08.440 ,0,0,0.,24.0,0.,24.0
1989-08-27T13:51:32.440 ,0,1,0.,24.0,0.,24.0
1989-08-27T13:51:56.440 ,0,0,0.,24.0,0.,24.0
1989-08-27T13:52:20.440 ,1,1,0.,24.0,0.,24.0
1989-08-27T13:52:44.440 ,1,0,0.,24.0,0.,24.0
1989-08-27T13:53:08.440 ,2,1,0.,24.0,0.,24.0
1989-08-27T13:53:32.440 ,2,0,0.,24.0,0.,24.0
1989-08-27T13:53:56.440 ,3,1,0.,24.0,0.,24.0
1989-08-27T13:54:20.440 ,3,0,0.,24.0,0.,24.0
1989-08-27T13:54:44.440 ,4,1,0.,24.0,0.,24.0
1989-08-27T13:55:08.440 ,4,0,0.,24.0,0.,24.0
1989-08-27T13:55:32.440 ,5,1,0.,24.0,0.,24.0
1989-08-27T13:55:56.440 ,5,0,0.,24.0,0.,24.0
1989-08-27T13:56:20.440 ,6,1,0.,24.0,0.,24.0
1989-08-27T13:56:44.440 ,6,0,0.,24.0,0.,24.0
1989-08-27T13:57:08.440 ,7,1,0.,24.0,0.,24.0
1989-08-27T13:57:32.440 ,7,0,0.,24.0,0.,24.0
1989-08-27T13:57:56.440 ,7,1,0.,24.0,0.,24.0
1989-08-27T13:58:20.440 ,7,0,0.,24.0,0.,24.0
1989-08-27T13:58:44.440 ,6,1,0.,24.0,0.,24.0
1989-08-27T13:59:08.440 ,6,0,0.,24.0,0.,24.0
1989-08-27T13:59:32.440 ,5,1,0.,24.0,0.,24.0
1989-08-27T13:59:56.440 ,5,0,0.,24.0,0.,24.0
1989-08-27T14:00:20.440 ,4,1,0.,24.0,0.,24.0
1989-08-27T14:00:44.440 ,4,0,0.,24.0,0.,24.0
1989-08-27T14:01:08.440 ,3,1,0.,24.0,0.,24.0
1989-08-27T14:01:32.440 ,3,0,0.,24.0,0.,24.0
1989-08-27T14:01:56.440 ,2,1,0.,24.0,0.,24.0
1989-08-27T14:02:20.440 ,2,0,0.,24.0,0.,24.0
1989-08-27T14:02:44.440 ,1,1,0.,24.0,0.,24.0
1989-08-27T14:03:08.440 ,1,0,0.,24.0,0.,24.0
1989-08-27T14:03:32.440 ,0,1,0.,24.0,0.,24.0
1989-08-27T14:03:56.440 ,0,0,0.,24.0,0.,24.0
1989-08-27T14:04:20.440 ,0,1,0.,24.0,0.,24.0
1989-08-27T14:04:44.440 ,0,0,0.,24.0,0.,24.0
1989-08-27T14:05:08.440 ,1,1,0.,24.0,0.,24.0
1989-08-27T14:05:32.440 ,1,0,0.,24.0,0.,24.0
1989-08-27T14:05:56.440 ,2,1,0.,24.0,0.,24.0
1989-08-27T14:06:20.440 ,2,0,0.,24.0,0.,24.0
1989-08-27T14:06:44.440 ,3,1,0.,24.0,0.,24.0
1989-08-27T14:07:08.440 ,3,0,0.,24.0,0.,24.0
1989-08-27T14:07:32.440 ,4,1,0.,24.0,0.,24.0
1989-08-27T14:07:56.440 ,4,0,0.,24.0,0.,24.0
1989-08-27T14:08:20.440 ,5,1,0.,24.0,0.,24.0
1989-08-27T14:08:44.440 ,5,0,0.,24.0,0.,24.0
1989-08-27T14:09:08.440 ,6,1,0.,24.0,0.,24.0
1989-08-27T14:09:32.440 ,6,0,0.,24.0,0.,24.0
1989-08-27T14:09:56.440 ,7,1,0.,24.0,0.,24.0
1989-08-27T14:10:20.440 ,7,0,0.,24.0,0.,24.0
1989-08-27T14:10:44.440 ,7,1,0.,24.0,0.,24.0
1989-08-27T14:11:08.440 ,7,0,0.,24.0,0.,24.0
1989-08-27T14:11:32.440 ,6,1,0.,24.0,0.,24.0
1989-08-27T14:11:56.440 ,6,0,0.,24.0,0.,24.0
1989-08-27T14:12:20.440 ,5,1,0.,24.0,0.,24.0
1989-08-27T14:12:44.440 ,5,0,0.,24.0,0.,24.0
1989-08-27T14:13:08.440 ,4,1,0.,24.0,0.,24.0
1989-08-27T14:13:32.440 ,4,0,0.,24.0,0.,24.0
1989-08-27T14:13:56.440 ,3,1,0.,24.0,0.,24.0
1989-08-27T14:14:20.440 ,3,0,0.,24.0,0.,24.0
1989-08-27T14:14:44.440 ,2,1,0.,24.0,0.,24.0
1989-08-27T14:15:08.440 ,2,0,0.,24.0,0.,24.0
1989-08-27T14:15:32.440 ,1,1,0.,24.0,0.,24.0
1989-08-27T14:15:56.440 ,1,0,0.,24.0,0.,24.0
1989-08-27T14:16:20.440 ,0,1,0.,24.0,0.,24.0
1989-08-27T14:16:44.440 ,0,0,0.,24.0,0.,24.0
1989-08-27T14:17:08.440 ,0,1,0.,24.0,0.,24.0
1989-08-27T14:17:32.440 ,0,0,0.,24.0,0.,24.0
1989-08-27T14:17:56.440 ,1,1,0.,24.0,0.,24.0
1989-08-27T14:18:20.440 ,1,0,0.,24.0,0.,24.0
1989-08-27T14:18:44.440 ,2,1,0.,24.0,0.,24.0
1989-08-27T14:19:08.440 ,2,0,0.,24.0,0.,24.0
1989-08-27T14:19:32.440 ,3,1,0.,24.0,0.,24.0
1989-08-27T14:19:56.440 ,3,0,0.,24.0,0.,24.0
1989-08-27T14:20:20.440 ,4,1,0.,24.0,0.,24.0
1989-08-27T14:20:44.440 ,4,0,0.,24.0,0.,24.0
1989-08-27T14:21:08.440 ,5,1,0.,24.0,0.,24.0
1989-08-27T14:21:32.440 ,5,0,0.,24.0,0.,24.0
1989-08-27T14:21:56.440 ,6,1,0.,24.0,0.,24.0
1989-08-27T14:22:20.440 ,6,0,0.,24.0,0.,24.0
1989-08-27T14:22:44.440 ,7,1,0.,24.0,0.,24.0
1989-08-27T14:23:08.440 ,7,0,0.,24.0,0.,24.0
1989-08-27T14:23:32.440 ,7,1,0.,24.0,0.,24.0
1989-08-27T14:23:56.440 ,7,0,0.,24.0,0.,24.0
1989-08-27T14:24:20.440 ,6,1,0.,24.0,0.,24.0
1989-08-27T14:24:44.440 ,6,0,0.,24.0,0.,24.0
1989-08-27T14:25:08.440 ,5,1,0.,24.0,0.,24.0
1989-08-27T14:25:32.440 ,5,0,0.,24.0,0.,24.0
1989-08-27T14:25:56.440 ,4,1,0.,24.0,0.,24.0
1989-08-27T14:26:20.440 ,4,0,0.,24.0,0.,24.0
1989-08-27T14:26:44.440 ,3,1,0.,24.0,0.,24.0
1989-08-27T14:27:08.440 ,3,0,0.,24.0,0.,24.0
1989-08-27T14:27:30.640 ,0,0,,0,,0
1989-08-27T14:27:32.440 ,2,1,0.,24.0,0.,24.0
1989-08-27T14:27:56.440 ,2,0,0.,24.0,0.,24.0
1989-08-27T14:27:33.040 ,0,0,,0,,0
1989-08-27T14:27:56.440 ,0,0,,0,,0
1989-08-27T14:28:20.440 ,1,1,0.,24.0,0.,24.0
1989-08-27T14:28:44.440 ,1,0,0.,24.0,0.,24.0
1989-08-27T14:29:08.440 ,0,1,0.,24.0,0.,24.0
1989-08-27T14:29:32.440 ,0,0,,0,,0
1989-08-27T14:29:56.440 ,0,1,0.,24.0,0.,24.0
1989-08-27T14:30:20.440 ,0,0,0.,24.0,0.,24.0
1989-08-27T14:30:44.440 ,1,1,0.,24.0,0.,24.0
1989-08-27T14:31:08.440 ,1,0,0.,24.0,0.,24.0
1989-08-27T14:31:32.440 ,2,1,0.,24.0,0.,24.0
1989-08-27T14:31:56.440 ,2,0,0.,24.0,0.,24.0
1989-08-27T14:32:20.440 ,3,1,0.,24.0,0.,24.0
1989-08-27T14:32:44.440 ,3,0,0.,24.0,0.,24.0
1989-08-27T14:33:08.440 ,4,1,0.,24.0,0.,24.0
1989-08-27T14:33:32.440 ,4,0,0.,24.0,0.,24.0
1989-08-27T14:33:56.440 ,5,1,0.,24.0,0.,24.0
1989-08-27T14:34:20.440 ,5,0,0.,24.0,0.,24.0
1989-08-27T14:34:44.440 ,6,1,0.,24.0,0.,24.0
1989-08-27T14:35:08.440 ,6,0,0.,24.0,0.,24.0
1989-08-27T14:35:32.440 ,7,1,0.,24.0,0.,24.0
1989-08-27T14:35:56.440 ,7,0,0.,24.0,0.,24.0
1989-08-27T14:36:20.440 ,7,1,0.,24.0,0.,24.0
1989-08-27T14:36:44.440 ,7,0,0.,24.0,0.,24.0
1989-08-27T14:37:08.440 ,6,1,0.,24.0,0.,24.0
1989-08-27T14:37:32.440 ,6,0,0.,24.0,0.,24.0
1989-08-27T14:37:56.440 ,5,1,0.,24.0,0.,24.0
1989-08-27T14:38:20.440 ,5,0,0.,24.0,0.,24.0
1989-08-27T14:38:44.440 ,4,1,0.,24.0,0.,24.0
1989-08-27T14:39:08.440 ,4,0,0.,24.0,0.,24.0
1989-08-27T14:39:32.440 ,3,1,0.,24.0,0.,24.0
1989-08-27T14:39:56.440 ,3,0,0.,24.0,0.,24.0
1989-08-27T14:40:20.440 ,2,1,0.,24.0,0.,24.0
1989-08-27T14:40:44.440 ,2,0,0.,24.0,0.,24.0
1989-08-27T14:41:08.440 ,1,1,0.,24.0,0.,24.0
1989-08-27T14:41:32.440 ,1,0,0.,24.0,0.,24.0
1989-08-27T14:41:56.440 ,0,1,0.,24.0,0.,24.0
1989-08-27T14:42:20.440 ,0,0,0.,24.0,0.,24.0
1989-08-27T14:42:44.440 ,0,1,0.,24.0,0.,24.0
1989-08-27T14:43:08.440 ,0,0,0.,24.0,0.,24.0
1989-08-27T14:43:32.440 ,1,1,0.,24.0,0.,24.0
1989-08-27T14:43:56.440 ,1,0,0.,24.0,0.,24.0
1989-08-27T14:44:20.440 ,2,1,0.,24.0,0.,24.0
1989-08-27T14:44:44.440 ,2,0,0.,24.0,0.,24.0
1989-08-27T14:45:08.440 ,3,1,0.,24.0,0.,24.0
1989-08-27T14:45:32.440 ,3,0,0.,24.0,0.,24.0
1989-08-27T14:45:56.440 ,4,1,0.,24.0,0.,24.0
1989-08-27T14:46:20.440 ,4,0,0.,24.0,0.,24.0
1989-08-27T14:46:44.440 ,5,1,0.,24.0,0.,24.0
1989-08-27T14:47:08.440 ,5,0,0.,24.0,0.,24.0
1989-08-27T14:47:32.440 ,6,1,0.,24.0,0.,24.0
1989-08-27T14:47:56.440 ,6,0,0.,24.0,0.,24.0
1989-08-27T14:48:20.440 ,7,1,0.,24.0,0.,24.0
1989-08-27T14:48:44.440 ,7,0,0.,24.0,0.,24.0
1989-08-27T14:49:08.440 ,7,1,0.,24.0,0.,24.0
1989-08-27T14:49:32.440 ,7,0,0.,24.0,0.,24.0
1989-08-27T14:49:56.440 ,6,1,0.,24.0,0.,24.0
1989-08-27T14:50:20.440 ,6,0,0.,24.0,0.,24.0
1989-08-27T14:50:44.440 ,5,1,0.,24.0,0.,24.0
1989-08-27T14:51:08.440 ,5,0,0.,24.0,0.,24.0
1989-08-27T14:51:32.440 ,4,1,0.,24.0,0.,24.0
1989-08-27T14:51:56.440 ,4,0,0.,24.0,0.,24.0
1989-08-27T14:52:20.440 ,3,1,0.,24.0,0.,24.0
1989-08-27T14:52:44.440 ,3,0,0.,24.0,0.,24.0
1989-08-27T14:53:08.440 ,2,1,0.,24.0,0.,24.0
1989-08-27T14:53:32.440 ,2,0,0.,24.0,0.,24.0
1989-08-27T14:53:56.440 ,1,1,0.,24.0,0.,24.0
1989-08-27T14:54:20.440 ,1,0,0.,24.0,0.,24.0
1989-08-27T14:54:44.440 ,0,1,0.,24.0,0.,24.0
1989-08-27T14:55:08.440 ,0,0,0.,24.0,0.,24.0
1989-08-27T14:55:32.440 ,0,1,0.,24.0,0.,24.0
1989-08-27T14:55:56.440 ,0,0,0.,24.0,0.,24.0
1989-08-27T14:56:20.440 ,1,1,0.,24.0,0.,24.0
1989-08-27T14:56:44.440 ,1,0,0.,24.0,0.,24.0
1989-08-27T14:57:08.440 ,2,1,0.,24.0,0.,24.0
1989-08-27T14:57:32.440 ,2,0,0.,24.0,0.,24.0
1989-08-27T14:57:56.440 ,3,1,0.,24.0,0.,24.0
1989-08-27T14:58:20.440 ,3,0,0.,24.0,0.,24.0
1989-08-27T14:58:44.440 ,4,1,0.,24.0,0.,24.0
1989-08-27T14:59:08.440 ,4,0,0.,24.0,0.,24.0
1989-08-27T14:59:32.440 ,5,1,0.,24.0,0.,24.0
1989-08-27T14:59:56.440 ,5,0,0.,24.0,0.,24.0
1989-08-27T15:00:20.440 ,6,1,0.,24.0,0.,24.0
